Location: Middelsbur
(53.6609°N, 7.5020°E)
Time: 00:29:25
(UTC+00:00)

Cosmos 1869 - Pass Details

Date: 06 July 2020
Orbit: 520 x 563 km, 82.5° (Epoch: 03 August)

Event Time Altitude Azimuth Distance (km) Brightness Sun altitude
Rises 21:52:43 0° 344° (NNW) 2,701 8.9 -10.6°
Reaches altitude 10° 21:54:55 10° 338° (NNW) 1,811 7.6 -10.8°
Maximum altitude 21:58:44 45° 266° (W) 750 4.1 -11.0°
Enters shadow 22:02:23 11° 194° (SSW) 1,751 5.4 -11.2°
